Погода в Новой Заре

Россия / Забайкальский край     50°21′44″N   115°33′10″E
темп.,
°C
ветер,
м/с
пор.,
м/с
влажн.,
%
обл.,
%
осадки,
мм/ч
давл.,
гПа
погр.,
м
20 июня, вс
вс2000:00+11с349326 0.2 100167
03:00+10с459545 0.8 1002117
06:00+11с469492 0.0 1004243
09:00+11ссв4794100 2.9 1005344
12:00+12ссв4691100 0.5 1007319
15:00+15св4575100 0.9 1007752
18:00+18св4560100 0.3 10071290
21:00+16всв33749 0.4 100833
21 июня, пн
пн2100:00+13св33838 0.0 100921
03:00+12ссв228730 0.0 101011
06:00+12всв118916 0.0 101111
09:00+17вюв11702 0.0 1012491
12:00+20ююв335617 0.0 10111261
15:00+22ююв344617 0.0 10101577
18:00+22ююв44472 0.0 10091106
21:00+18ююв22600 0.0 100921
22 июня, вт
вт2200:00+16ю22673 0.0 101016
03:00+15ююз227298 0.0 101012
06:00+14ююв3374100 0.0 101145
09:00+19ююв455928 0.0 1010343
12:00+23ююв44461 0.0 1009888
15:00+26ююв343853 0.0 10081706
18:00+25ююв33388 0.1 10071171
21:00+22юв335021 0.1 100735
23 июня, ср
ср2300:00+19ю335438 0.1 100825
03:00+17ю346252 0.1 100957
06:00+16ююв2262100 0.0 100917
09:00+21юв334631 0.0 1009284
12:00+26ююв443639 0.0 1008757
15:00+27ююз333258 0.1 10071281
18:00+28ююв233090 0.0 10061606
21:00+24ю2242100 0.2 100614
24 июня, чт
чт2400:00+20ссв1157100 0.1 100814
03:00+19св1266100 0.5 100821
06:00+17юв336598 0.1 100862
09:00+21юв445283 0.2 1008286
12:00+25ю223688 0.0 1007877
15:00+27вюв233298 0.0 1007988
18:00+26всв683792 0.0 1004522
21:00+23вюв5115060 0.0 1005214